Back to catalog

FREGAT DEB

LostHEO
NORAD 45895·DEBRIS·🇷🇺 Russia

Launched Jul 18, 2011 from Baikonur Cosmodrome

Loading…

Next Passes (next 24 hours)

TLE

StaleSource: Space-Track

Epoch: Aug 25, 2020, 10:31 UTC

1 45895U 11037DQ  20238.43834888  .00027598  00000-0  34133-1 0  9990
2 45895  51.4483 263.2106 2715420 118.3273 271.7473  9.27229423  4368

Track FREGAT DEB in real time with AllMySat

Download on the App Store